Location: Bidart
(43.4376°N, 1.5913°W)
Time: 05:12:06
(UTC+00:00)

H-2A DEB - Pass Details

Date: 15 April 2026
Orbit: 584 x 592 km, 98.2° (Epoch: 15 May)

Event Time Altitude Azimuth Distance (km) Brightness Sun altitude
Exits shadow 01:42:15 18° 349° (NNW) 1,456 ? -32.5°
Drops below altitude 10° 01:43:25 10° 348° (NNW) 1,928 ? -32.4°
Sets 01:45:35 0° 348° (NNW) 2,835 ? -32.3°
